Regional Weather Roundup
Issued by NWS Kansas City/Pleasant Hill, MO

Home | Current Version | Previous Version | Text Only | Print | Product List | Glossary On
Versions: 1 2 3 4 5 6 7 8 9 10 11 12 13 14 15 16 17 18 19 20 21 22 23 24 25 26 27 28 29 30 31 32 33 34 35 36 37 38 39 40 41 42 43 44 45 46 47 48 49 50
291
ASUS43 KEAX 291310
RWREAX

WEATHER ROUNDUP FOR EASTERN KANSAS AND NORTHWEST MISSOURI
NATIONAL WEATHER SERVICE KANSAS CITY/PLEASANT HILL MO
800 AM CDT MON MAY 29 2017

KSZ040-057-103>105-MOZ028-029-037-043-291400-
...KANSAS CITY METROPOLITAN AREA...

CITY           SKY/WX    TMP DP  RH WIND       PRES   REMARKS
K.C. INTL      MOSUNNY   65  54  67 W9        29.93F
K.C. DOWNTOWN  SUNNY     64  55  72 SW7       29.93F
LEES SUMMIT    SUNNY     63  54  72 W6        29.95R
OLATHE - IXD   SUNNY     65  53  65 W9        29.96S
OLATHE - OJC   SUNNY     65  53  65 W9        29.96R
LAWRENCE       SUNNY     63  56  78 W8        29.96S

$$

MOZ001>008-011>017-020>025-030>033-038>040-044>046-053-054-291400-
...NORTHERN AND CENTRAL MISSOURI...

CITY           SKY/WX    TMP DP  RH WIND       PRES   REMARKS
ST. JOSEPH     SUNNY     64  53  67 NW7       29.94R
MOSBY          CLOUDY    59  55  88 CALM      29.93F
WARRENSBURG    CLOUDY    59  54  82 S5        29.93F
WHITEMAN AFB   PTSUNNY   62  62 100 SW7       29.94S
CLINTON        SUNNY     63  55  77 S5        29.97R
SEDALIA        SUNNY     64  58  80 SW10      29.95S
WARSAW         NOT AVBL
CHILLICOTHE      N/A     64  49  57 VRB3      29.93R
KIRKSVILLE     MOSUNNY   61  51  70 NW9       29.93R

$$

MOZ041-047>049-056>058-063>065-088>090-097-291400-
...EASTERN AND SOUTHERN MISSOURI...

CITY           SKY/WX    TMP DP  RH WIND       PRES   REMARKS
ST. LOUIS INTL MOSUNNY   69  55  60 W9        29.93R
SPIRIT OF STL  MOSUNNY   66  57  72 W7        29.93R
COLUMBIA       SUNNY     63  58  83 S5        29.94S
JEFFERSON CITY SUNNY     65  57  75 CALM      29.95R
ROLLA          SUNNY     62  56  80 SW7       29.96S
OSAGE BEACH    SUNNY     61  56  83 S3        29.98S
SPRINGFIELD    SUNNY     66  56  70 W8        30.00R
BRANSON        PTSUNNY   64  55  72 SW3       30.03R
JOPLIN         SUNNY     69  57  65 SW8       30.00S
WEST PLAINS    SUNNY     65  58  78 W6        30.01R

$$

IAZ060-094-KSZ022-034>040-054-083-096-NEZ052-066-093-291400-
...KANSAS...SOUTHEAST NEBRASKA AND IOWA...

CITY           SKY/WX    TMP DP  RH WIND       PRES   REMARKS
TOPEKA         SUNNY     63  55  75 W10       29.97R
MANHATTAN      SUNNY     63  53  70 CALM      30.01R
EMPORIA        SUNNY     64  53  67 NW8       30.00R
CHANUTE        SUNNY     65  53  65 MISG      30.01R
WICHITA        MOSUNNY   64  50  60 W3        30.04R
OMAHA          MOSUNNY   62  47  57 CALM      29.97S
LINCOLN        MOSUNNY   60  49  66 NW6       30.01S
FALLS CITY     SUNNY     60  50  69 NW9       29.96R
LAMONI         CLOUDY    62  48  60 NW7       29.93S
DES MOINES     PTSUNNY   62  48  60 NW7       29.92S

$$





USA.gov is the U.S. government's official web portal to all federal, state and local government web resources and services.